Find Local Weather

World > North America > United States > Washington

Seattle, Washington Regional Weather

Lat: 47.61N, Lon: 122.33W
Wx Zone: WAZ558
Feedback
Expires:201809221500;;036963
ASUS46 KSEW 221410
RWRWA 

WASHINGTON REGIONAL WEATHER ROUNDUP
NATIONAL WEATHER SERVICE SEATTLE WA
700 AM PDT SAT SEP 22 2018

NOTE:"FAIR" INDICATES FEW OR NO CLOUDS BELOW 12,000 FEET WITH NO 
SIGNIFICANT WEATHER AND/OR OBSTRUCTIONS TO VISIBILITY.


WAZ507-509-555>559-221500-
SEATTLE, TACOMA, EVERETT, AND VICINITY
  
CITY           SKY/WX    TMP DP  RH WIND       PRES   REMARKS
EVERETT        MOCLDY    58  54  86 SE18G35   29.84R                  
BOEING FIELD   LGT RAIN  58  54  86 S8        29.87R                  
RENTON         LGT RAIN  59  55  87 VRB5      29.87R                  
SEATAC AIRPORT CLOUDY    59  54  83 S13       29.87S                  
JBLM-MCCHORD   CLOUDY    57  57 100 S12       29.89R                  
PUYALLUP       DRIZZLE   59  55  88 S9        29.90R                  
BREMERTON      CLOUDY    56  55  97 S12       29.86S                  
JBLM-FT LEWIS  CLOUDY    57  57  99 S12       29.88R                  
TACOMA NARROWS CLOUDY    57  54  89 S14       29.89R                  
$$
 

SKY/WX - Weather  TMP - Temperature  DP - Dew Point  RH - Relative Humidity
WIND - Wind Direction/Speed PRES - Barometric Pressure